Weather History for Eugene, OR

Change the Weather History Date:

Wednesday, February 6, 2013

  Actual Average Record
Temperature  
Mean Temperature 48 °F 42 °F  
Max Temperature 55 °F 50 °F 66 °F (1963)
Min Temperature 40 °F 35 °F 8 °F (1989)
Degree Days  
Heating Degree Days 17 23  
Month to date heating degree days 120 138  
Since 1 July heating degree days 2613 2848  
Cooling Degree Days 0 0  
Month to date cooling degree days 0 0  
Year to date cooling degree days 0 0  
Moisture  
Dew Point 39 °F    
Average Humidity 74    
Maximum Humidity 96    
Minimum Humidity 51    
Precipitation  
Precipitation 0.07 in 0.20 in 2.89 in (1996)
Month to date precipitation 0.51 1.16  
Year to date precipitation 1.86 8.03  
Snow  
Snow 0.00 in - - ()
Month to date snowfall 0.0  
Since 1 July snowfall 0.0  
Snow Depth 0.00 in    
Sea Level Pressure  
Sea Level Pressure 30.06 in    
Wind  
Wind Speed 10 mph (South)    
Max Wind Speed 26 mph    
Max Gust Speed 32 mph    
Visibility 10 miles    
Events Rain    
T = Trace of Precipitation, MM = Missing Value Source: NWS Daily Summary

Daily Weather History Graph

Daily Weather History Graph

Search for Another Location

Airport:

Trip Planner

Search our weather history database for the weather conditions in past years. The results will help you decide how hot, cold, wet, or windy it might be!

Date:

Astronomy

Feb. 06, 2013 Rise Set
Actual Time 7:24 AM PST 5:30 PM PST
Civil Twilight 6:53 AM PST 6:00 PM PST
Nautical Twilight 6:19 AM PST 6:35 PM PST
Astronomical Twilight 5:45 AM PST 7:08 PM PST
Moon 4:17 AM PST (2/6) 1:50 PM PST (2/6)
Length of Visible Light 11h 06m
Length of Day
10h 06m
Waning Crescent, 16% of the Moon is Illuminated
Feb 6
Waning Crescent
Feb 9
New
Feb 17
First Quarter
Feb 25
Full
Mar 4
Last Quarter

Hourly Weather History & Observations

Time (PST) Temp. Windchill Dew Point Humidity Pressure Visibility Wind Dir Wind Speed Gust Speed Precip Events Conditions
12:54 AM 43.0 °F 39.5 °F 41.0 °F 93% 30.13 in 10.0 mi South 5.8 mph - 0.01 in   Overcast
1:54 AM 43.0 °F 37.2 °F 39.9 °F 89% 30.14 in 10.0 mi South 10.4 mph - N/A   Overcast
2:54 AM 43.0 °F 37.7 °F 39.9 °F 89% 30.15 in 10.0 mi South 9.2 mph - N/A   Mostly Cloudy
3:54 AM 43.0 °F 37.2 °F 39.9 °F 89% 30.15 in 10.0 mi South 10.4 mph - N/A   Overcast
4:35 AM 42.8 °F 37.5 °F 39.2 °F 87% 30.14 in 10.0 mi South 9.2 mph - N/A   Mostly Cloudy
4:47 AM 42.8 °F 37.5 °F 39.2 °F 87% 30.14 in 10.0 mi South 9.2 mph - N/A   Mostly Cloudy
4:54 AM 43.0 °F 37.7 °F 39.9 °F 89% 30.15 in 10.0 mi South 9.2 mph - N/A   Overcast
5:54 AM 43.0 °F 38.2 °F 39.9 °F 89% 30.14 in 10.0 mi South 8.1 mph - N/A   Overcast
6:54 AM 42.8 °F 36.6 °F 39.2 °F 87% 30.12 in 10.0 mi South 11.5 mph - N/A   Scattered Clouds
7:54 AM 41.0 °F 35.8 °F 37.9 °F 89% 30.13 in 10.0 mi SSE 8.1 mph - N/A   Mostly Cloudy
8:54 AM 45.0 °F 42.6 °F 39.9 °F 82% 30.13 in 10.0 mi South 4.6 mph - N/A   Overcast
9:54 AM 46.0 °F 41.0 °F 39.9 °F 79% 30.13 in 10.0 mi South 10.4 mph - N/A   Overcast
10:54 AM 48.9 °F - 39.9 °F 71% 30.12 in 10.0 mi South 18.4 mph - N/A   Overcast
11:54 AM 51.1 °F - 39.9 °F 66% 30.09 in 10.0 mi South 18.4 mph - N/A   Overcast
12:54 PM 51.1 °F - 39.0 °F 63% 30.06 in 10.0 mi South 12.7 mph - N/A   Overcast
1:54 PM 55.0 °F - 37.9 °F 53% 30.02 in 10.0 mi SSW 17.3 mph - N/A   Mostly Cloudy
2:54 PM 53.1 °F - 39.9 °F 61% 30.00 in 10.0 mi West 6.9 mph 19.6 mph N/A   Mostly Cloudy
3:54 PM 51.1 °F - 41.0 °F 68% 29.99 in 10.0 mi WSW 10.4 mph - N/A   Mostly Cloudy
4:54 PM 50.0 °F - 41.0 °F 71% 29.97 in 10.0 mi SSW 6.9 mph - N/A   Mostly Cloudy
5:54 PM 48.9 °F - 39.0 °F 69% 29.96 in 10.0 mi SSW 8.1 mph - N/A   Mostly Cloudy
6:54 PM 46.9 °F - 37.9 °F 71% 29.93 in 10.0 mi South 4.6 mph - N/A   Mostly Cloudy
7:54 PM 48.0 °F - 37.9 °F 68% 29.91 in 10.0 mi South 9.2 mph - N/A   Mostly Cloudy
8:54 PM 48.0 °F - 37.9 °F 68% 29.89 in 10.0 mi South 9.2 mph - N/A   Overcast
9:54 PM 48.0 °F - 37.9 °F 68% 29.91 in 10.0 mi SW 16.1 mph 25.3 mph N/A   Overcast
10:54 PM 42.1 °F 36.1 °F 37.9 °F 85% 29.97 in 10.0 mi WSW 10.4 mph 19.6 mph 0.03 in Rain Light Rain
11:54 PM 41.0 °F 36.4 °F 37.9 °F 89% 30.00 in 10.0 mi SW 6.9 mph - 0.03 in Rain Light Rain